Zurück zum Katalog

STARLINK-5858

AktivKommunikationVLEO
NORAD 57264·PAYLOAD·🇺🇸 United States

Gestartet Jul 7, 2023 von Vandenberg Space Force Base

Loading…

Nächste Überflüge (nächste 24 Stunden)

TLE

AktuellSource: CelesTrak SupGP

Epoche: Sep 14, 2026, 21:00 UTC

1 57264C 23094AY  26257.87548611  .00042981  00000+0  15565-2 0  2578
2 57264  43.0021  31.3788 0001410 270.4032 119.3284 15.27562861    12

Verfolge STARLINK-5858 in Echtzeit mit AllMySat

Download on the App Store